Location: Newark
(40.7060°N, 73.9980°W)
Time: 23:24:21
(UTC+00:00)

X-37B - Pass Details

Date: 17 March 2021
Orbit: 380 x 394 km, 45.0° (Epoch: 07 April)

Event Time Altitude Azimuth Distance (km) Brightness Sun altitude
Rises 01:23:41 0° 288° (WNW) 2,274 5.8 -26.6°
Reaches altitude 10° 01:25:50 10° 296° (WNW) 1,421 4.4 -27.0°
Enters shadow 01:26:59 19° 307° (NW) 1,001 3.4 -27.2°
